カタログに戻る

METEOR 2-12 DEB

運用中PO
NORAD 45518·DEBRIS·🇷🇺 Russia

打ち上げ Feb 6, 1985 から Plesetsk Cosmodrome

Loading…

次のパス (今後24時間)

TLE

最新Source: Space-Track

元期: Sep 14, 2026, 03:07 UTC

1 45518U 85013D   26257.13043346  .00001779  00000-0  10789-2 0  9997
2 45518  82.5271 195.5895 0022133 163.9035 196.2845 14.05753172133401

AllMySatでMETEOR 2-12 DEBをリアルタイム追跡

Download on the App Store